Location: Pilipovskiye Korichintsy
(49.1833°N, 27.4667°E)
Time: 12:39:43
(UTC+00:00)

Spot 4 Rocket - Pass Details

Date: 14 July 2020
Orbit: 777 x 781 km, 98.7° (Epoch: 07 August)

Event Time Altitude Azimuth Distance (km) Brightness Sun altitude
Rises 01:21:40 0° 15° (NNE) 3,274 8.5 -8.1°
Reaches altitude 10° 01:24:00 10° 17° (NNE) 2,343 7.7 -7.8°
Maximum altitude 01:29:11 80° 104° (ESE) 798 4.2 -7.2°
Drops below altitude 10° 01:34:20 10° 192° (SSW) 2,328 6.0 -6.6°
Enters shadow 01:36:00 - 193° (SSW) 2,994 6.5 -6.4°
